Tracking 35016 objects as of 7-Aug-2026
HD Live streaming from Space Station
objects crossing your sky now

NOAA 16 DEB


NOAA 16 DEB is no longer on orbit


NORAD ID: 41370
Int'l Code: 2000-055JP
Launch date: September 21, 2000
Source: United States (US)
Launch site: AIR FORCE WESTERN TEST RANGE (AFWTR)
Decay date: 2026-06-20

Note: This is SATELLITE DEBRIS
Your satellite tracking list
Your tracking list is empty




NASA's NSSDC Master Catalog

Two Line Element Set (TLE):
1 41370U 00055JP  26142.60492064  .00429796  00000-0  75741-2 0  9994
2 41370  98.8649  91.8055 0016156 161.9558 198.2265 15.48719110552263
Source of the keplerian elements: AFSPC